Location: Zagreb
(45.8000°N, 16.0000°E)
Time: 00:29:18
(UTC+01:00)

CAS-4B - Visible Passes

Search period start: 31 October 2020 00:00
Search period end: 10 November 2020 00:00
Orbit: 530 x 543 km, 43.0° (Epoch: 30 October)

Date Brightness Start Highest point End Pass type
(mag) Time Alt. Az. Time Alt. Az. Time Alt. Az.
31 Oct ? 03:31:06 17° ESE 03:31:06 17° ESE 03:32:09 10° ESE visible
31 Oct ? 05:06:27 27° WSW 05:07:59 37° SSW 05:11:45 10° SE visible
01 Nov ? 03:21:21 12° ESE 03:21:21 12° ESE 03:21:44 10° ESE visible
01 Nov ? 04:56:42 30° SW 04:57:31 33° SSW 05:01:11 10° SE visible
02 Nov ? 04:47:00 28° SSW 04:47:03 28° SSW 04:50:35 10° SE visible
03 Nov ? 04:37:22 23° S 04:37:22 23° S 04:39:54 10° SSE visible
04 Nov ? 04:27:47 16° S 04:27:47 16° S 04:29:09 10° SSE visible
05 Nov ? 04:18:17 10° S 04:18:17 10° S 04:18:18 10° S visible
